Weather History for West Palm Beach, FL

Change the Weather History Date:

Saturday, November 26, 2011

  Actual Average Record
Temperature  
Mean Temperature 77 °F 71 °F  
Max Temperature 81 °F 79 °F 87 °F (1948)
Min Temperature 72 °F 64 °F 36 °F (1950)
Degree Days  
Heating Degree Days 0 1  
Month to date heating degree days 0 5  
Since 1 July heating degree days 0 6  
Cooling Degree Days 12 7  
Month to date cooling degree days 259 218  
Year to date cooling degree days 4548 3839  
Growing Degree Days 26 (Base 50)    
Moisture  
Dew Point 61 °F    
Average Humidity 61    
Maximum Humidity 73    
Minimum Humidity 48    
Precipitation  
Precipitation 0.00 in 0.13 in 2.15 in (1921)
Month to date precipitation 1.19 4.22  
Year to date precipitation 46.85 58.42  
Snow  
Snow 0.00 in - - ()
Month to date snowfall 0.0  
Since 1 July snowfall 0.0  
Since 1 September snowfall 0.0  
Snow Depth 0.00 in    
Sea Level Pressure  
Sea Level Pressure 30.15 in    
Wind  
Wind Speed 17 mph (East)    
Max Wind Speed 25 mph    
Max Gust Speed 32 mph    
Visibility 10 miles    
Events      
T = Trace of Precipitation, MM = Missing Value Source: NWS Daily Summary

Daily Weather History Graph

Daily Weather History Graph

Search for Another Location

Airport:

Trip Planner

Search our weather history database for the weather conditions in past years. The results will help you decide how hot, cold, wet, or windy it might be!

Date:

Astronomy

Nov. 26, 2011 Rise Set
Actual Time 6:47 AM EST 5:27 PM EST
Civil Twilight 6:22 AM EST 5:52 PM EST
Nautical Twilight 5:54 AM EST 6:20 PM EST
Astronomical Twilight 5:26 AM EST 6:48 PM EST
Moon 8:11 AM EST (11/26) 7:01 PM EST (11/26)
Length of Visible Light 11h 29m
Length of Day
10h 39m
Waxing Crescent, 3% of the Moon is Illuminated
Nov 26
Waxing Crescent
Dec 2
First Quarter
Dec 10
Full
Dec 17
Last Quarter
Dec 24
New

Hourly Weather History & Observations

Time (EST) Temp. Heat Index Dew Point Humidity Pressure Visibility Wind Dir Wind Speed Gust Speed Precip Events Conditions
12:53 AM 73.4 °F - 57.2 °F 57% 30.15 in 10.0 mi East 15.0 mph 24.2 mph N/A   Scattered Clouds
1:53 AM 73.9 °F - 59.0 °F 59% 30.15 in 10.0 mi East 15.0 mph - N/A   Mostly Cloudy
2:53 AM 73.9 °F - 57.9 °F 57% 30.14 in 10.0 mi East 15.0 mph - N/A   Clear
3:53 AM 73.0 °F - 60.1 °F 64% 30.14 in 10.0 mi East 15.0 mph 20.7 mph N/A   Partly Cloudy
4:53 AM 73.9 °F - 61.0 °F 64% 30.13 in 10.0 mi East 12.7 mph 21.9 mph N/A   Partly Cloudy
5:53 AM 73.0 °F - 64.9 °F 76% 30.14 in 10.0 mi East 17.3 mph 24.2 mph N/A   Mostly Cloudy
6:53 AM 73.0 °F - 64.0 °F 73% 30.15 in 10.0 mi East 15.0 mph 25.3 mph N/A   Mostly Cloudy
7:53 AM 75.0 °F - 62.1 °F 64% 30.17 in 10.0 mi East 16.1 mph 25.3 mph N/A   Mostly Cloudy
8:53 AM 75.0 °F - 60.1 °F 60% 30.19 in 10.0 mi East 21.9 mph 32.2 mph N/A   Mostly Cloudy
9:53 AM 78.1 °F - 57.9 °F 50% 30.21 in 10.0 mi East 24.2 mph 29.9 mph N/A   Scattered Clouds
10:53 AM 79.0 °F - 60.1 °F 52% 30.20 in 10.0 mi East 17.3 mph 23.0 mph N/A   Mostly Cloudy
11:53 AM 79.0 °F - 61.0 °F 54% 30.18 in 10.0 mi East 23.0 mph 28.8 mph N/A   Mostly Cloudy
12:53 PM 80.1 °F 80.7 °F 59.0 °F 48% 30.15 in 10.0 mi East 18.4 mph 24.2 mph N/A   Mostly Cloudy
1:53 PM 78.1 °F - 63.0 °F 60% 30.13 in 10.0 mi East 13.8 mph 21.9 mph N/A   Mostly Cloudy
2:53 PM 78.1 °F - 64.0 °F 62% 30.12 in 10.0 mi East 16.1 mph - N/A   Scattered Clouds
3:53 PM 78.1 °F - 63.0 °F 60% 30.12 in 10.0 mi East 16.1 mph - N/A   Scattered Clouds
4:53 PM 77.0 °F - 63.0 °F 62% 30.12 in 10.0 mi East 12.7 mph - N/A   Scattered Clouds
5:53 PM 75.9 °F - 63.0 °F 64% 30.12 in 10.0 mi East 16.1 mph 23.0 mph N/A   Mostly Cloudy
6:53 PM 75.0 °F - 63.0 °F 66% 30.12 in 10.0 mi East 18.4 mph 24.2 mph N/A   Scattered Clouds
7:53 PM 75.0 °F - 63.0 °F 66% 30.13 in 10.0 mi East 17.3 mph 25.3 mph N/A   Scattered Clouds
8:53 PM 75.0 °F - 61.0 °F 62% 30.13 in 10.0 mi East 17.3 mph 28.8 mph N/A   Scattered Clouds
9:53 PM 75.0 °F - 57.9 °F 55% 30.14 in 10.0 mi East 16.1 mph 20.7 mph N/A   Mostly Cloudy
10:53 PM 75.0 °F - 57.9 °F 55% 30.13 in 10.0 mi East 21.9 mph 28.8 mph N/A   Mostly Cloudy
11:53 PM 75.0 °F - 57.9 °F 55% 30.12 in 10.0 mi East 20.7 mph - N/A   Mostly Cloudy